Wind_Speed
13 12 12 11 11 11 11 10 10 10 9 8 9 11 12 14 15 14 15 15 15 17 17 17 16 15 17 17 17 15 8 5 3 4 5 6 3 3 7 11 15 16 20 22 22 23 21 18 18 16 16 14 10 9 12 14 18 19 17 19 21 18 14 11 7 5 3 2 7 15 20 21 21 20 20 20 20 20 16 10 13 15 12 9 6 3 7
12 12 12 11 11 11 10 10 10 10 9 8 9 12 13 15 16 17 18 17 18 18 17 16 15 15 16 16 15 13 9 6 3 4 5 6 4 6 9 11 13 13 17 21 23 23 19 15 17 18 18 17 14 13 12 13 17 17 15 17 20 19 16 13 7 4 2 1 2 8 14 18 19 18 19 18 16 18 17 12 12 14 14 13 7 4 12
12 11 12 11 11 11 10 10 12 11 9 8 10 14 15 15 16 17 18 18 19 17 16 16 15 14 14 13 13 11 8 7 5 5 6 7 7 8 10 12 13 11 13 17 20 21 18 17 19 21 21 18 15 14 13 13 14 15 13 16 19 18 17 17 10 4 4 3 1 5 10 13 14 14 16 16 15 17 16 13 12 12 13 14 10 8 16
11 11 11 11 12 11 10 11 13 12 9 8 12 15 16 17 19 20 18 19 19 16 16 17 15 14 12 10 12 10 8 9 7 5 5 6 7 9 10 12 13 11 12 16 19 18 19 20 22 23 23 19 15 14 13 13 12 12 12 15 20 19 15 17 14 8 7 7 4 6 10 12 12 12 13 14 14 15 16 14 13 12 13 15 14 11 15
11 11 11 12 12 11 11 13 14 12 9 9 12 15 17 17 19 21 19 18 19 17 17 17 15 15 12 10 13 11 8 10 8 5 5 6 7 8 9 10 10 11 13 18 20 19 20 23 25 25 22 19 18 16 14 13 12 12 13 13 18 18 14 15 15 11 10 10 8 8 11 11 12 12 12 12 11 12 14 14 14 14 13 13 15 15 14
10 11 11 12 12 11 12 14 13 11 9 10 12 15 19 15 14 19 19 16 17 18 18 17 16 15 13 12 15 11 8 9 8 5 6 7 6 6 6 8 9 10 12 16 19 20 22 24 25 24 22 20 19 18 16 15 13 12 13 12 14 15 13 13 14 13 13 11 10 10 12 13 13 12 11 10 10 11 13 15 15 14 14 13 15 17 15
9 10 12 13 11 11 14 14 12 11 9 10 12 15 18 15 12 18 18 14 15 18 17 17 16 15 15 15 15 12 9 10 9 7 7 6 5 4 5 6 8 9 8 11 16 19 21 23 23 22 22 20 19 18 16 16 15 13 13 12 11 12 12 12 13 15 14 11 10 11 12 13 14 14 12 10 10 12 14 15 15 14 15 14 12 15 17
9 11 12 12 11 12 15 13 11 11 9 10 13 14 17 15 12 16 17 13 16 19 17 18 18 16 16 16 15 13 10 9 9 9 8 7 5 4 5 6 7 8 7 8 12 14 16 18 19 19 19 18 17 16 15 15 16 15 14 14 12 11 11 13 15 16 15 12 11 11 9 10 14 16 16 16 14 13 13 13 14 15 15 13 11 13 18
10 12 12 11 11 13 14 11 11 11 9 11 13 14 17 15 11 14 18 16 19 21 19 19 18 16 16 17 15 13 11 9 8 8 7 5 5 5 6 7 7 7 7 9 11 12 13 13 14 14 14 14 13 12 12 13 14 14 14 14 14 13 12 16 16 15 15 13 11 11 9 9 11 13 15 17 17 15 13 12 13 14 13 11 11 13 16
11 13 12 10 11 14 13 10 11 11 9 11 13 15 16 13 9 13 19 19 21 21 20 19 18 16 16 15 14 12 11 10 8 8 8 7 6 6 6 8 8 6 8 10 12 13 12 11 11 10 10 10 10 9 9 10 10 11 12 12 12 12 12 16 16 13 14 14 11 12 10 7 7 10 12 14 15 15 14 13 14 13 11 8 8 10 12
13 13 11 10 12 14 12 9 11 12 10 10 13 15 16 11 9 14 18 18 20 20 19 18 16 15 15 14 14 13 12 12 10 8 9 10 10 10 8 7 7 8 9 11 12 13 12 11 10 9 8 8 8 8 9 8 7 8 8 8 9 10 10 13 14 12 15 16 13 11 8 4 6 10 12 12 13 13 14 14 14 14 13 10 8 8 11
15 13 10 11 13 13 11 10 12 12 10 11 14 16 15 13 12 16 17 18 20 19 18 17 15 14 13 13 14 13 11 12 11 7 8 10 11 11 10 7 7 9 10 10 11 11 11 10 9 8 8 7 6 7 8 8 7 8 7 7 8 10 12 14 14 12 16 19 14 7 3 5 9 11 11 12 13 14 13 13 14 15 14 13 12 11 12
15 13 11 12 13 12 10 10 12 12 10 12 16 16 15 14 15 17 18 19 20 19 18 17 15 13 14 14 14 13 11 11 11 8 8 9 9 9 9 8 8 10 10 10 10 9 9 9 9 8 7 7 6 6 6 7 8 8 9 9 8 9 13 16 14 13 16 16 11 4 3 8 11 12 12 13 12 12 13 12 14 16 16 15 14 13 14
15 13 12 12 12 12 11 11 12 12 11 14 17 16 15 17 18 18 20 21 21 20 17 17 15 14 13 13 14 14 12 12 12 10 9 8 7 7 7 7 8 10 11 12 11 9 9 10 9 8 8 7 6 6 6 7 7 8 10 10 10 10 13 17 15 12 13 13 9 5 4 8 13 16 15 15 15 13 12 13 13 15 17 17 14 12 12
16 13 13 13 12 12 11 11 12 11 11 15 18 14 14 19 19 19 20 20 20 18 16 16 16 15 13 12 13 14 13 12 11 10 8 7 6 5 5 5 6 8 10 11 11 10 10 10 11 10 9 8 7 6 7 8 7 9 10 11 12 12 13 16 15 12 14 14 9 5 2 5 14 18 16 15 15 13 12 12 13 14 16 16 14 11 11
16 14 14 13 12 12 11 11 11 11 12 16 17 13 15 20 19 18 19 20 19 18 16 15 15 14 12 12 12 12 11 10 9 8 7 5 4 4 4 4 5 6 7 9 10 11 11 11 12 12 10 10 9 7 8 9 9 10 11 10 12 13 12 14 15 12 15 17 10 5 6 8 12 16 16 13 12 11 10 9 11 14 15 14 14 11 8
15 14 14 13 12 12 11 11 11 11 11 14 15 14 19 22 20 19 19 20 20 19 16 14 13 12 11 12 12 11 10 8 7 6 5 5 5 5 5 5 5 5 6 7 8 10 13 14 14 13 12 13 12 8 8 11 10 10 12 11 10 10 10 12 13 11 15 17 11 8 10 10 9 13 15 13 11 10 9 5 7 12 13 12 11 12 10
15 14 14 14 13 13 12 11 12 11 10 12 13 18 23 23 22 21 20 20 20 20 18 16 14 11 10 10 9 9 8 7 5 4 4 5 6 7 7 6 6 6 6 8 8 9 13 16 16 15 14 14 14 9 9 12 12 12 14 13 11 11 10 11 12 11 13 16 13 7 7 9 9 12 14 14 11 10 9 6 4 7 10 10 10 11 10
15 13 13 14 15 13 12 12 12 11 11 13 16 21 24 23 22 22 21 20 20 19 17 16 14 10 9 8 7 7 6 5 4 3 2 4 6 8 8 7 5 4 4 6 7 8 12 15 15 15 15 16 16 12 10 12 13 13 15 15 13 13 11 11 13 12 12 15 13 6 5 8 9 11 14 14 12 10 11 10 6 4 6 7 8 9 11
15 14 13 14 16 14 13 13 13 13 15 18 19 21 23 23 22 21 21 20 19 17 15 14 12 9 8 7 6 6 6 6 5 5 4 3 5 7 7 5 4 2 1 2 6 8 11 13 14 14 15 16 17 13 11 13 14 13 14 14 14 14 12 12 14 13 12 13 12 6 6 9 10 11 15 16 14 10 10 10 8 6 5 4 4 8 12
15 15 14 16 17 15 14 15 15 16 18 20 21 22 23 22 20 19 18 17 16 15 13 12 10 8 6 5 4 5 6 6 7 6 5 4 5 6 6 4 3 2 1 2 4 8 10 12 13 13 13 14 16 14 11 13 14 14 14 13 13 14 12 12 14 14 12 13 13 9 8 10 10 12 15 16 15 11 9 8 7 6 5 4 3 7 10
15 16 17 18 18 17 16 17 17 17 19 20 21 22 22 21 18 17 15 13 11 11 11 11 10 7 6 4 4 5 6 6 6 6 6 5 4 5 6 5 4 4 5 6 6 8 10 12 13 13 12 14 16 15 12 12 13 14 14 13 12 13 13 12 14 15 13 12 13 12 9 8 9 11 13 15 16 14 9 7 6 5 5 4 5 8 9
17 19 19 19 19 19 18 18 18 19 20 21 22 22 21 19 16 14 12 9 7 7 9 11 11 9 7 6 5 6 6 6 6 7 7 6 4 5 6 6 7 8 9 8 8 8 10 12 13 14 13 13 14 15 14 13 12 12 14 14 12 12 13 13 12 13 13 11 10 10 9 8 9 12 13 15 16 14 10 7 7 7 6 5 8 11 10
19 20 20 21 21 21 20 19 19 21 21 21 22 21 19 16 14 12 9 7 6 7 9 11 12 11 8 7 5 5 5 5 5 5 6 6 5 5 6 6 8 9 8 7 7 8 9 11 12 13 13 12 13 14 14 13 12 12 13 14 13 12 12 12 12 12 12 10 9 10 10 10 12 13 13 14 14 12 9 8 8 7 6 6 9 11 10
19 20 21 22 23 23 21 19 20 22 22 22 21 20 17 15 13 11 9 7 7 9 11 12 13 12 10 7 6 5 4 4 4 3 4 4 5 4 4 5 6 7 7 7 8 8 9 11 12 12 13 12 12 12 13 11 11 11 12 13 12 12 11 11 11 12 12 11 11 11 12 13 13 12 12 12 12 11 11 10 9 9 10 12 13 12 11
19 20 22 23 24 24 21 18 20 23 22 21 21 19 16 14 12 10 8 8 9 11 14 15 14 13 11 9 7 6 5 4 3 2 2 1 1 0 1 1 3 5 5 6 8 9 9 9 10 11 12 12 11 11 11 10 9 9 11 11 11 11 12 12 12 13 13 13 13 14 16 16 15 14 13 13 13 13 14 14 13 13 13 14 14 12 12
20 21 22 24 25 24 21 19 21 22 20 20 20 18 15 13 11 10 10 11 11 13 15 16 16 14 12 10 9 8 6 5 5 4 4 4 4 4 4 3 2 2 3 6 9 10 9 8 8 9 9 10 10 9 8 8 7 7 8 10 9 10 11 12 13 15 16 15 16 17 18 19 19 18 17 16 16 16 16 16 15 14 13 11 9 8 9
20 22 23 24 24 23 22 21 22 20 19 19 19 17 14 11 10 10 11 11 11 13 16 17 17 15 13 11 10 8 7 6 6 4 4 6 7 7 7 7 7 7 6 7 9 10 9 8 8 9 9 10 10 9 8 8 7 7 7 8 8 8 8 9 11 13 14 15 18 19 19 20 21 20 19 19 18 16 15 15 15 14 13 11 9 8 9
21 22 22 23 23 23 22 23 23 21 20 20 18 16 13 10 9 11 12 10 10 14 16 17 16 14 13 12 10 9 8 8 6 5 7 10 11 11 10 9 9 9 8 7 9 9 8 8 9 10 10 10 9 9 10 11 10 10 9 9 8 8 8 8 8 9 13 20 23 21 20 21 21 20 19 19 17 14 13 13 13 12 12 12 12 12 12
22 22 22 23 22 22 23 24 23 21 20 19 18 15 12 10 11 12 11 10 12 15 16 15 15 14 12 11 10 10 10 9 6 7 10 12 12 13 11 10 10 9 7 7 8 8 9 10 10 9 9 8 7 8 11 12 12 12 11 10 11 10 10 10 9 11 17 24 25 21 20 20 21 20 19 17 15 13 13 14 14 14 14 14 14 13 13
22 22 23 22 22 22 24 25 23 21 19 18 17 14 12 12 13 13 11 12 14 15 14 14 14 14 12 11 11 12 11 9 7 8 10 11 12 12 10 9 9 8 6 7 9 10 12 13 11 9 8 6 5 8 10 11 12 15 14 13 14 13 11 12 15 17 21 24 24 21 20 19 18 18 18 17 16 15 14 15 16 15 15 15 14 13 13
22 22 23 22 21 22 24 24 22 20 19 17 16 14 12 13 14 13 12 14 14 13 12 13 13 13 12 11 12 11 10 7 6 6 8 9 10 10 9 9 10 10 9 10 12 14 14 11 8 8 9 7 6 9 11 10 12 16 16 15 16 15 13 16 19 19 18 18 18 19 19 18 16 17 19 20 19 17 16 16 17 16 15 15 14 14 14
21 22 22 22 21 22 23 24 22 20 19 17 15 13 13 14 15 14 13 13 13 12 12 12 12 13 14 13 12 11 8 6 4 4 5 7 7 7 7 9 10 10 9 9 10 12 11 9 7 9 11 9 6 8 10 11 14 17 18 15 15 15 16 17 17 16 15 14 12 13 17 19 20 20 21 22 21 19 18 18 18 18 17 16 15 15 15
21 21 22 22 21 21 23 23 23 21 20 17 14 13 14 16 16 14 13 13 13 12 11 10 11 14 16 14 13 11 8 6 4 2 4 7 6 5 6 8 7 7 8 8 8 10 10 9 8 9 10 9 6 6 9 14 17 18 18 16 16 16 17 18 18 18 18 17 14 15 18 21 22 22 22 22 22 21 19 18 18 17 16 16 15 15 16
20 21 22 22 21 20 22 24 24 23 20 16 14 14 16 17 16 14 13 14 13 12 11 10 11 14 15 14 12 11 9 7 6 4 5 7 7 5 5 5 5 8 11 11 10 10 10 10 9 9 9 8 5 6 11 16 19 19 18 18 18 18 19 21 22 22 21 19 17 19 21 22 22 22 23 22 21 20 19 18 17 16 15 15 15 15 15
20 21 23 23 21 20 22 24 25 24 19 15 14 15 16 17 16 15 14 14 13 11 10 10 11 13 13 13 12 12 10 8 8 7 7 8 7 5 4 5 8 12 14 13 12 12 10 9 9 10 10 10 8 8 13 17 18 18 19 19 19 19 19 20 21 22 23 21 19 20 22 23 23 23 22 21 20 19 18 17 17 16 15 15 15 15 15
20 21 23 24 22 20 21 23 26 24 19 15 15 15 16 16 16 15 16 15 12 10 9 9 11 12 12 11 11 11 10 10 10 10 9 8 8 7 6 7 10 13 14 12 12 11 10 9 10 13 15 15 14 15 17 18 18 18 20 21 20 19 19 19 20 22 23 23 22 23 23 23 22 22 21 20 20 19 17 17 17 16 16 15 15 15 15
20 21 23 24 23 20 20 22 25 23 18 16 15 15 15 14 14 15 16 14 11 10 9 9 11 12 11 10 11 11 11 11 12 12 11 11 10 9 9 9 10 12 13 12 10 10 11 11 13 17 20 19 18 19 20 19 19 19 19 20 20 19 18 19 20 20 21 23 24 24 24 23 22 22 21 20 19 19 18 17 17 17 16 16 16 15 15
20 22 23 24 22 19 19 22 25 22 19 17 16 15 14 13 12 14 15 14 12 10 9 10 12 13 12 12 12 13 12 12 11 11 11 10 10 9 9 9 8 10 13 13 9 9 12 15 16 19 21 20 19 19 20 20 20 20 19 19 18 17 17 18 18 17 17 19 21 21 21 21 21 21 20 19 19 18 18 18 19 18 17 17 16 15 14
20 22 24 23 21 18 18 22 24 22 19 18 17 15 14 13 12 12 13 12 12 12 11 12 14 14 14 13 12 12 12 11 9 8 7 7 7 7 8 8 8 10 12 12 9 8 11 15 16 18 21 21 20 19 20 20 20 21 21 21 21 19 19 20 20 19 18 19 20 21 20 20 19 19 19 18 18 18 18 19 19 18 18 17 16 15 14
20 22 23 22 20 18 20 23 24 21 20 19 17 15 14 14 12 11 11 11 12 13 13 13 14 16 15 13 11 10 10 9 7 6 6 5 6 6 5 5 6 7 8 9 9 8 10 12 13 15 19 22 22 21 20 21 21 22 22 23 23 22 21 22 22 21 20 20 20 21 20 20 20 19 19 19 18 18 18 18 18 17 17 16 15 14 13
20 22 23 21 20 19 20 22 23 21 21 20 17 15 15 14 12 11 11 11 11 14 15 15 14 16 16 14 10 9 8 8 6 6 5 5 4 4 3 2 2 2 4 6 7 7 8 10 12 15 18 21 22 22 21 21 22 23 23 23 23 22 21 21 22 22 21 20 20 20 19 19 20 20 19 19 19 18 17 17 16 16 16 15 14 13 12
20 22 23 22 21 21 21 22 22 22 21 20 19 17 16 15 14 12 11 12 13 16 17 16 16 17 17 14 10 9 8 7 6 6 6 5 4 3 3 1 1 1 3 5 5 5 5 6 8 12 16 19 21 21 21 22 22 22 22 22 22 21 21 21 21 22 21 20 20 20 20 20 20 20 19 19 18 17 16 16 16 15 15 14 13 12 11
21 23 23 22 21 21 20 20 22 22 20 20 21 19 18 18 17 14 12 13 15 17 18 17 16 18 17 14 11 11 10 8 7 7 7 6 5 4 3 2 1 1 3 4 4 4 5 5 7 11 14 17 20 21 21 21 21 21 22 23 23 22 21 21 21 21 22 21 20 20 20 20 20 19 18 18 17 16 14 14 14 14 13 13 12 11 10
22 24 23 21 21 21 19 18 22 23 21 21 23 22 19 19 18 15 13 14 16 17 16 16 16 17 16 14 12 12 11 9 8 8 7 7 7 6 4 3 2 2 4 5 5 6 6 8 10 12 14 16 19 20 20 19 20 20 21 22 23 21 20 19 18 17 17 17 16 15 15 16 16 16 16 16 15 15 14 13 13 13 12 11 11 10 8
22 23 23 21 21 22 19 17 20 24 23 21 23 23 20 18 17 15 13 14 15 15 15 15 14 15 15 14 13 13 12 10 9 8 8 7 7 6 5 5 5 4 5 7 7 6 5 7 9 11 12 14 17 19 19 18 18 18 18 19 21 21 19 16 15 14 13 13 12 11 11 12 13 14 14 14 14 13 13 13 12 12 11 11 10 9 8
22 23 23 21 20 23 21 17 18 22 23 21 22 23 20 18 17 15 14 14 15 15 15 14 13 13 14 14 13 13 12 10 9 10 9 8 7 7 7 7 7 8 8 8 7 4 5 8 10 11 13 15 16 18 19 19 17 16 15 15 17 19 18 16 14 13 12 11 10 9 9 10 11 12 13 12 12 12 12 12 12 11 10 9 9 9 8
21 23 23 21 19 21 21 17 16 20 21 21 21 22 21 19 18 17 15 14 15 16 16 15 13 13 15 15 12 11 11 11 10 11 11 9 8 8 7 7 9 11 11 7 3 2 6 9 10 11 13 14 16 17 18 18 17 16 15 14 14 15 16 16 15 13 11 9 8 8 8 9 11 12 12 12 12 12 12 12 11 10 8 8 8 8 7
21 22 23 20 18 19 20 17 15 17 19 19 20 21 21 19 18 17 16 15 16 16 16 14 12 12 14 15 13 11 11 12 12 12 12 12 11 10 8 8 10 11 8 4 1 4 8 10 11 11 12 13 15 16 17 17 16 15 14 13 12 11 12 13 13 12 11 9 7 7 8 9 10 11 12 12 12 12 12 11 10 9 8 7 7 7 6
22 22 22 20 17 17 19 18 15 15 18 18 19 20 21 20 19 18 17 17 17 17 17 15 13 12 12 14 14 13 12 12 13 13 13 14 14 13 13 14 13 9 6 4 1 6 9 10 11 12 12 13 15 16 16 16 15 14 12 11 11 10 10 11 11 11 11 9 8 7 7 8 9 10 11 12 12 12 12 11 11 10 9 8 7 6 6
22 22 22 20 16 15 18 18 15 15 17 17 17 19 21 21 20 19 19 18 19 19 18 16 15 13 12 13 13 12 12 12 14 15 15 15 16 16 17 16 14 10 7 5 4 7 10 10 11 12 13 13 15 17 16 15 14 13 12 11 11 10 10 10 10 10 10 9 9 8 7 7 8 10 11 12 12 12 12 12 12 11 10 9 8 7 6
21 22 23 21 17 14 15 16 15 15 17 17 17 19 22 22 22 22 21 20 20 20 19 17 16 14 12 12 13 12 11 11 13 15 17 17 18 18 17 15 13 10 8 7 6 8 10 10 10 11 12 12 14 16 17 16 14 13 12 12 12 12 11 10 10 10 10 10 10 8 7 8 9 11 12 11 11 10 10 10 11 11 10 10 9 8 7
Wind_Direction
270 266 253 240 224 216 217 212 206 201 200 202 200 197 190 180 179 181 183 184 185 187 192 195 194 195 202 208 206 208 220 203 186 42 97 157 167 123 115 117 133 159 173 175 181 179 171 177 187 182 173 168 155 155 172 181 188 195 199 201 204 205 212 219 207 197 203 153 189 197 198 202 205 208 205 198 200 206 208 212 199 189 183 164 138 95 166
267 260 248 233 218 212 213 207 200 197 197 200 198 193 187 182 181 179 180 182 183 185 189 192 193 195 202 207 204 207 216 193 157 51 86 131 135 128 115 103 113 142 162 169 177 176 164 162 174 174 165 154 141 138 148 167 182 190 193 197 199 198 206 209 182 144 169 113 130 182 191 201 207 209 208 204 203 203 204 207 195 187 189 182 168 151 175
264 255 242 227 213 208 208 202 197 195 195 197 196 192 188 185 182 179 178 181 184 185 185 187 193 198 200 201 202 204 201 176 143 71 86 116 130 129 114 103 100 117 155 166 169 175 173 163 160 162 160 150 140 139 139 148 170 179 183 191 194 192 198 202 188 144 156 162 127 164 172 185 198 204 207 210 211 206 204 201 190 189 198 198 195 173 174
261 249 235 219 208 205 202 198 196 193 194 200 197 193 191 185 179 177 177 178 181 183 183 185 189 191 189 188 190 187 169 155 135 96 101 115 132 136 122 115 106 108 141 150 148 157 167 165 161 159 155 146 137 140 139 136 144 155 162 179 188 188 190 196 199 199 196 201 201 171 168 173 178 188 200 206 209 208 209 209 206 206 201 198 206 203 187
257 240 226 212 204 201 196 195 195 192 195 201 194 193 195 187 176 177 177 174 179 182 179 181 186 184 175 173 177 168 143 148 143 121 130 130 135 137 128 128 121 114 128 132 130 140 152 157 160 158 154 147 139 138 143 145 142 144 150 164 181 186 183 186 195 199 200 210 209 183 179 180 172 173 184 192 200 208 213 218 221 221 210 201 210 216 210
250 228 215 206 200 196 193 192 193 195 198 195 188 191 197 194 179 177 179 177 179 180 175 179 188 179 160 160 172 162 139 154 159 152 157 151 144 143 133 133 128 121 125 124 122 131 142 146 148 149 149 147 140 137 142 151 151 148 151 156 176 188 180 174 186 191 192 203 205 192 190 186 176 174 179 184 193 200 207 217 223 224 223 224 221 216 214
237 215 206 201 197 192 189 189 191 198 196 184 184 189 193 198 189 177 178 179 176 174 175 181 184 171 152 154 163 156 146 163 171 173 176 168 157 151 142 136 131 131 135 127 125 130 136 140 139 141 144 143 142 140 142 150 155 159 165 163 169 180 167 158 175 182 178 182 185 181 187 190 185 184 186 194 204 203 202 210 218 221 223 228 228 217 212
219 203 200 197 194 188 186 188 190 194 190 176 181 184 185 197 202 177 171 173 170 171 177 177 171 162 154 151 151 147 147 161 175 184 191 192 187 171 153 144 136 136 141 138 133 132 136 141 142 142 145 147 147 145 144 151 157 164 175 177 181 183 159 148 161 161 150 152 161 161 171 188 189 184 183 186 195 201 200 202 207 209 210 209 209 211 213
200 194 196 193 189 184 184 188 187 187 184 175 176 177 180 195 203 174 165 167 169 170 172 169 162 158 156 150 145 144 146 154 169 174 174 184 188 172 161 159 146 133 138 146 144 138 138 147 149 149 151 153 152 148 146 151 154 160 171 178 188 193 172 158 161 154 142 142 147 150 156 174 184 182 179 177 180 187 192 192 192 196 202 203 200 205 208
188 188 192 189 184 181 182 187 183 180 180 176 175 176 179 191 197 170 164 166 168 167 168 167 162 158 155 149 145 148 150 152 161 157 142 139 142 137 145 161 157 138 134 142 147 146 145 151 154 155 159 161 161 156 151 151 152 155 165 173 184 196 190 176 171 158 147 147 149 154 156 161 180 189 189 183 179 181 187 189 189 190 199 213 219 214 209
180 184 187 184 180 179 181 180 175 178 181 176 175 176 178 188 186 166 162 164 166 166 167 166 160 155 154 151 149 155 160 163 169 165 145 136 127 114 116 144 154 145 140 140 143 146 148 150 153 159 164 166 169 168 165 170 170 164 168 176 182 192 193 185 182 168 153 152 150 149 154 168 188 193 196 195 191 189 190 193 194 193 196 204 215 219 213
176 181 181 179 177 177 177 173 171 178 183 174 171 174 178 183 176 163 161 164 165 165 164 162 156 151 153 155 155 159 169 175 178 178 162 149 135 120 116 124 135 138 143 147 147 149 151 149 148 153 157 156 161 167 172 179 183 179 181 184 186 187 183 182 186 174 157 153 147 139 169 197 188 188 193 196 199 200 199 200 201 200 199 199 201 203 206
175 179 174 173 175 173 170 169 170 177 179 170 168 172 176 177 170 162 162 164 165 165 163 160 156 150 148 154 156 154 161 171 167 159 158 157 148 139 135 131 131 138 147 156 160 162 161 155 150 153 157 155 155 157 159 165 171 175 179 180 185 190 190 186 176 161 157 157 153 152 193 187 188 199 206 207 209 208 207 211 211 209 207 205 203 203 203
175 177 170 168 170 166 164 166 170 176 177 169 170 173 173 173 170 165 164 166 167 165 158 152 150 145 141 150 159 155 152 155 151 145 148 150 147 153 155 149 146 148 154 163 170 175 172 165 161 162 161 162 163 159 157 160 166 171 173 176 181 190 200 195 179 163 166 165 150 134 151 181 200 208 212 218 223 222 221 223 223 222 217 208 201 204 206
178 176 167 165 162 158 160 164 169 176 174 170 176 176 165 165 168 166 164 165 163 156 147 143 144 143 139 146 159 159 152 147 145 142 144 147 145 149 156 162 169 169 171 178 184 187 187 181 174 168 163 164 164 162 168 173 173 173 173 175 179 185 200 204 196 186 180 169 146 120 138 213 217 215 217 221 222 225 228 227 225 228 227 215 201 203 216
180 176 167 162 154 151 158 162 168 173 171 175 181 168 143 147 153 152 152 152 149 145 142 142 144 146 147 148 155 161 159 153 151 150 151 157 163 166 168 178 192 197 199 201 201 200 201 199 190 182 179 178 175 167 172 179 180 181 182 181 179 178 190 203 203 198 188 181 170 177 209 225 223 219 220 217 212 212 214 224 226 221 223 222 205 193 203
181 175 167 158 148 149 156 161 166 168 170 182 179 144 126 132 134 133 138 138 135 135 139 142 141 145 155 158 159 167 170 168 169 172 179 190 197 200 201 202 209 220 223 223 219 210 205 203 197 192 189 187 186 180 175 178 181 186 187 187 184 181 187 197 201 200 195 192 189 202 221 229 221 213 212 209 208 205 196 206 228 216 219 229 215 198 202
182 175 166 156 146 149 157 161 162 161 167 177 159 128 123 128 128 129 134 134 131 132 136 142 143 147 160 166 167 172 176 181 192 201 201 199 198 197 192 191 201 218 226 225 220 210 205 203 200 196 193 190 190 189 183 180 183 187 190 190 189 188 190 196 200 202 200 197 195 203 224 229 217 209 208 205 204 203 196 197 213 210 215 227 225 212 207
182 177 168 155 147 150 159 160 156 155 157 156 139 123 123 128 129 132 137 137 136 134 137 144 146 148 161 169 172 181 192 202 214 233 218 194 190 186 181 183 193 201 212 213 207 202 202 201 199 198 197 194 192 193 191 188 188 192 194 194 193 192 194 197 197 197 198 198 197 199 219 224 216 208 206 202 199 205 216 220 223 210 202 217 226 208 187
183 182 172 155 149 152 159 158 152 148 146 142 131 123 125 130 133 137 140 141 141 138 140 148 150 148 160 172 177 193 213 228 239 257 256 209 192 189 188 194 205 194 165 203 200 202 204 200 198 199 201 199 199 199 196 194 194 197 199 200 200 199 200 197 193 192 193 191 189 193 220 223 218 207 204 202 202 215 232 233 232 232 222 229 228 191 178
183 183 172 156 151 154 157 154 148 145 143 138 130 125 128 132 136 139 141 144 147 146 146 153 155 152 162 181 196 208 222 232 238 247 239 205 198 201 195 198 217 229 292 273 218 211 210 205 202 201 201 201 201 201 201 199 198 202 207 206 204 204 204 200 197 198 196 191 194 209 225 223 216 209 206 205 206 216 229 229 227 229 230 238 206 171 168
182 177 166 155 153 155 154 151 147 147 146 139 130 126 127 130 133 137 138 137 143 152 161 169 171 169 172 187 204 209 214 220 224 225 215 201 210 218 210 217 254 277 285 277 251 230 220 212 208 206 203 201 200 200 202 204 203 206 210 210 208 209 211 210 209 210 211 209 212 219 222 215 207 201 198 200 205 212 218 223 223 221 222 216 175 160 162
173 166 159 156 155 154 152 151 151 151 148 140 132 127 128 128 129 132 133 128 128 145 165 174 178 177 177 179 184 192 203 211 215 215 212 210 222 236 237 251 272 284 287 275 253 239 229 220 215 211 206 204 204 203 204 207 209 211 213 215 218 219 217 217 218 216 214 216 219 217 211 201 195 191 188 192 204 214 219 223 226 225 223 204 169 166 175
164 159 157 157 154 152 153 154 154 152 147 139 133 130 128 126 122 117 115 118 124 129 139 153 163 167 168 164 161 175 192 199 202 211 221 232 241 249 259 273 281 285 283 261 235 225 219 214 213 212 208 205 206 207 208 211 213 215 217 220 223 224 222 220 219 215 209 206 205 203 196 184 180 185 186 187 197 210 216 214 214 214 210 190 171 171 181
159 157 158 157 154 153 155 154 154 152 146 138 134 134 130 124 118 112 109 113 123 127 129 138 148 153 153 143 135 139 153 167 184 208 232 246 249 251 266 280 283 281 268 241 223 216 211 207 207 209 208 206 206 209 214 218 219 220 224 225 223 223 221 216 215 215 210 202 196 187 175 165 165 175 183 186 192 203 205 195 183 180 179 172 164 164 170
157 158 159 157 154 155 155 152 152 151 144 136 136 137 132 124 118 117 118 118 122 130 133 134 134 136 136 133 126 122 120 123 129 134 132 131 146 168 322 282 268 261 240 218 209 204 202 202 203 205 207 208 207 208 209 213 217 217 219 221 219 219 218 213 209 208 201 191 182 171 162 158 161 169 178 181 181 183 179 166 156 157 163 163 160 163 169
158 159 160 157 155 156 155 152 151 148 141 139 141 139 132 126 122 124 129 128 130 137 138 133 130 131 134 134 126 116 109 99 89 95 106 100 92 89 90 97 121 154 165 182 187 184 185 193 197 200 202 200 198 195 196 202 206 205 211 214 210 210 215 213 207 203 198 188 176 169 166 163 162 165 169 167 162 159 156 149 144 144 146 148 149 156 161
157 159 159 156 156 157 155 152 152 150 146 146 145 139 133 130 129 135 140 139 143 148 144 138 135 135 136 133 121 107 102 93 79 80 94 87 82 85 92 98 100 104 119 153 168 167 172 183 184 182 184 185 184 182 179 181 180 176 182 188 187 190 201 205 204 203 196 180 168 166 169 168 162 159 159 155 151 152 151 148 145 144 142 138 135 134 136
156 157 157 156 157 158 156 155 156 155 152 151 149 145 140 138 141 147 149 151 157 158 152 143 136 132 128 122 110 101 101 98 85 79 85 86 83 82 83 87 88 89 99 125 142 149 159 169 170 170 172 177 179 175 168 165 161 157 157 159 162 168 169 170 182 193 180 165 159 162 170 169 158 152 151 147 145 151 156 154 153 153 150 145 141 138 135
154 156 157 158 160 159 158 159 160 158 157 157 156 152 149 151 158 158 157 159 163 163 159 148 135 128 125 119 111 109 110 105 94 86 84 83 80 73 70 75 77 75 83 107 123 136 145 146 148 151 152 160 177 176 167 163 155 149 151 151 146 144 144 145 160 183 175 161 154 158 167 163 152 148 149 145 142 148 154 152 149 147 143 138 135 132 128
155 157 158 160 161 160 161 162 162 162 163 163 163 162 160 161 165 164 160 160 162 163 165 156 140 129 123 114 111 112 112 107 99 88 81 76 68 59 58 68 76 77 92 111 120 128 130 126 126 130 129 139 171 168 162 164 157 145 140 136 129 126 131 141 154 170 171 159 151 154 160 158 153 153 153 145 140 143 146 142 137 133 127 121 118 114 110
157 159 160 161 161 161 163 164 164 164 166 167 168 169 166 165 166 164 161 162 162 165 171 165 147 130 120 114 110 109 109 109 103 87 79 76 67 58 61 74 81 90 108 122 127 131 128 121 122 128 126 131 154 153 152 163 159 142 130 123 119 119 127 137 146 156 158 152 152 157 156 151 150 151 146 138 134 135 136 131 126 121 116 113 112 109 105
159 161 162 163 163 164 166 167 166 166 168 171 172 169 165 165 165 164 164 165 166 169 177 176 156 135 127 125 122 120 122 128 122 97 88 85 71 63 78 87 88 95 107 121 134 138 133 129 135 136 131 133 153 159 156 160 156 142 130 123 122 124 130 135 140 144 140 137 149 160 153 145 145 144 139 134 132 132 132 129 124 122 120 116 113 110 108
163 164 164 165 166 168 170 170 169 169 170 173 172 166 164 165 165 164 166 168 169 172 178 179 163 145 137 136 137 139 145 157 167 163 116 99 85 79 92 95 93 96 101 110 127 133 131 130 136 138 135 136 155 176 166 159 155 147 138 132 131 131 133 135 137 138 134 133 145 155 149 144 143 142 137 134 133 133 132 128 123 119 117 113 110 107 105
167 167 168 168 170 173 174 173 172 171 171 172 171 167 167 168 166 166 168 170 172 176 176 172 165 154 145 141 143 146 151 165 183 184 136 113 107 101 98 99 106 107 105 105 109 111 111 114 123 130 130 129 146 180 171 160 155 151 145 141 138 139 141 141 140 138 135 136 146 151 145 141 141 139 136 134 134 133 130 124 118 114 110 107 105 102 101
170 171 172 172 174 177 178 175 173 171 169 170 172 169 169 172 171 171 175 178 180 183 183 176 168 160 152 148 148 147 151 163 169 158 138 126 121 113 105 112 116 112 107 104 101 96 92 99 112 117 112 109 118 144 151 149 148 148 148 145 143 146 149 148 145 141 137 140 148 148 143 140 140 138 136 135 133 130 127 123 119 116 113 109 106 104 102
175 176 177 177 178 180 179 175 173 170 167 168 170 169 170 174 176 176 181 186 187 190 192 187 176 167 161 159 155 151 154 161 158 148 141 136 128 120 120 123 119 112 106 102 99 93 87 93 109 111 107 107 114 122 127 132 136 142 147 148 148 151 153 151 148 144 141 144 149 148 142 141 140 137 135 135 133 131 130 128 124 122 120 116 113 109 106
181 181 181 180 180 181 179 174 171 168 166 167 169 168 168 171 176 179 183 187 190 191 192 194 188 179 171 167 161 155 155 158 153 146 142 137 130 129 128 123 116 111 107 102 99 98 99 105 112 113 112 115 118 119 120 125 131 138 145 148 148 151 154 152 149 146 145 147 151 149 144 142 141 138 138 139 136 135 135 132 129 128 126 120 116 112 109
184 183 181 180 180 180 177 172 169 167 166 167 168 169 169 169 173 181 186 189 192 190 188 191 191 186 179 174 167 159 156 154 147 142 138 131 127 131 129 121 116 116 112 106 102 107 115 119 120 119 118 120 121 122 122 126 129 132 135 136 135 138 142 140 138 139 141 144 146 144 142 141 142 141 142 142 140 139 138 136 134 132 127 122 118 115 113
182 181 180 180 180 177 173 170 168 166 168 170 170 171 173 171 171 178 184 187 190 190 186 187 187 183 179 178 174 165 158 151 140 135 132 123 122 129 127 119 120 123 117 111 107 116 127 130 130 129 127 126 126 127 127 128 129 129 129 128 127 129 132 132 132 136 141 144 143 142 142 143 143 143 144 143 143 142 140 137 134 130 126 123 122 121 118
178 178 178 179 178 174 170 170 170 169 172 174 174 176 177 175 175 180 182 184 188 189 185 184 184 180 175 175 177 172 163 152 142 143 144 130 124 127 123 114 117 124 125 120 116 121 133 138 138 138 137 134 132 132 132 132 133 133 133 134 135 137 139 139 139 141 146 147 146 146 147 147 147 148 150 150 149 145 140 136 132 130 129 127 126 124 121
173 174 175 175 175 172 170 172 174 175 177 179 180 182 184 184 187 189 186 185 188 188 182 179 181 179 173 170 175 181 174 160 154 162 166 155 142 137 129 109 97 114 144 143 130 128 141 148 152 155 150 141 136 136 137 138 138 138 138 140 141 141 143 144 143 144 146 148 148 149 150 151 153 156 157 156 153 147 142 137 134 133 132 130 127 126 123
169 170 171 172 173 172 173 175 178 180 182 185 187 189 190 191 193 193 190 188 186 182 179 177 177 176 174 172 177 187 187 178 175 182 185 186 180 168 162 156 46 83 160 162 150 146 150 151 162 171 162 146 138 138 140 141 141 141 140 140 138 136 137 140 142 144 146 148 151 155 156 158 160 162 162 160 156 151 146 142 139 137 136 133 130 128 124
167 169 171 173 174 175 177 180 183 185 188 192 193 194 196 195 193 192 194 192 185 179 177 177 176 175 175 177 180 187 190 191 194 196 195 197 203 199 189 195 275 197 176 177 180 179 169 158 168 179 171 153 141 140 143 145 147 148 146 143 140 139 139 140 142 145 147 148 152 155 157 159 162 163 162 160 157 153 150 146 144 143 141 138 134 129 126
170 173 174 176 178 179 182 186 189 190 194 198 199 200 201 199 196 195 196 192 184 178 177 179 178 177 179 182 184 186 191 197 202 202 199 202 210 213 210 216 243 231 203 201 205 202 190 181 180 183 179 164 151 146 146 148 151 154 153 151 148 145 142 141 141 142 142 142 144 147 152 157 161 163 164 162 157 154 154 153 151 150 149 144 138 134 133
173 177 180 181 182 184 187 192 195 196 199 204 204 204 202 199 198 200 198 189 181 176 177 179 181 182 184 186 186 190 196 201 202 202 205 209 213 217 219 222 226 225 224 226 226 215 198 189 183 180 181 175 162 152 149 152 156 160 162 158 153 149 144 141 140 139 137 136 137 140 147 155 160 164 168 167 160 157 161 162 159 157 156 152 147 146 148
176 180 183 185 188 191 193 197 199 201 204 208 208 206 203 200 199 201 199 188 180 178 179 181 181 184 189 190 191 196 204 207 204 205 209 211 213 219 225 228 228 232 239 248 249 223 187 183 179 175 178 181 173 162 157 158 161 163 164 161 156 151 148 147 149 149 145 141 140 143 149 157 161 165 170 171 169 170 173 173 169 166 164 160 157 157 161
179 183 185 189 196 198 198 201 206 206 207 211 211 207 203 200 200 200 195 186 180 181 185 185 181 183 190 196 200 205 209 212 211 212 214 214 216 221 225 230 238 244 251 261 267 184 180 186 183 176 176 179 178 173 168 165 163 163 164 164 161 156 152 152 157 160 159 155 150 149 154 162 167 171 175 179 181 182 183 182 179 176 172 169 166 163 161
184 186 188 192 200 202 201 204 210 210 209 211 212 207 202 200 198 196 191 185 180 180 183 185 183 183 190 198 205 212 217 218 218 218 220 220 223 226 229 234 245 257 271 288 246 176 184 187 186 183 180 177 176 175 171 168 166 165 164 164 167 166 160 158 161 167 173 174 168 160 158 161 167 175 183 186 188 189 190 191 190 187 184 180 175 167 163
189 190 191 195 201 204 203 204 209 210 210 211 212 206 200 196 194 190 187 184 181 178 179 183 187 191 197 203 208 215 222 223 222 225 228 230 232 236 240 244 252 268 296 315 218 187 189 191 191 190 186 179 173 170 169 167 166 165 163 164 171 176 174 169 170 174 180 185 185 181 174 165 163 173 182 184 185 189 194 197 199 200 197 193 187 180 178
193 194 195 197 199 202 205 207 211 211 209 210 210 204 198 194 189 186 184 183 181 180 182 187 191 197 206 211 212 216 223 225 225 229 234 237 239 242 246 252 260 271 282 278 225 194 193 198 197 194 192 186 177 171 167 165 165 168 171 175 181 185 186 185 184 185 190 195 197 194 187 176 174 180 185 183 182 187 194 199 202 204 204 203 202 198 195
196 197 198 197 197 201 206 210 214 215 211 207 204 200 194 190 187 187 187 187 186 187 192 197 201 206 215 218 217 221 228 231 232 235 239 242 247 251 255 261 266 264 258 252 228 199 192 194 194 193 193 189 179 171 168 166 167 173 181 185 189 193 197 199 200 203 206 208 205 201 197 193 190 190 189 185 183 188 195 197 199 202 205 209 211 211 211
Height
2975 2975 2975 2976 2977 2978 2979 2979 2980 2981 2983 2984 2985 2986 2988 2989 2990 2991 2993 2995 2997 2998 2999 3000 3002 3004 3005 3006 3008 3009 3010 3010 3009 3009 3010 3010 3010 3010 3010 3009 3009 3010 3011 3013 3015 3017 3021 3024 3026 3028 3031 3032 3033 3034 3036 3038 3041 3043 3046 3048 3051 3054 3056 3056 3058 3059 3060 3061 3062 3063 3065 3067 3069 3071 3072 3074 3076 3078 3080 3081 3083 3084 3086 3087 3088 3092 3095
2973 2973 2974 2975 2976 2977 2978 2978 2979 2981 2982 2983 2984 2985 2987 2988 2989 2990 2992 2994 2995 2996 2998 3000 3002 3003 3005 3006 3008 3009 3010 3010 3009 3009 3009 3010 3010 3010 3010 3010 3010 3010 3011 3012 3014 3016 3019 3024 3026 3028 3030 3032 3034 3035 3036 3038 3040 3042 3045 3047 3049 3052 3054 3055 3057 3059 3060 3061 3062 3062 3064 3066 3067 3069 3071 3073 3075 3077 3079 3080 3082 3082 3084 3085 3087 3090 3093
2971 2972 2972 2973 2974 2975 2977 2977 2979 2980 2981 2982 2983 2985 2986 2988 2989 2990 2992 2993 2994 2996 2998 3000 3001 3003 3004 3006 3008 3009 3010 3010 3009 3009 3010 3010 3010 3010 3010 3010 3011 3011 3011 3012 3014 3016 3019 3022 3026 3028 3030 3032 3034 3035 3037 3038 3040 3042 3044 3046 3048 3050 3052 3054 3056 3058 3060 3061 3061 3062 3063 3064 3066 3068 3070 3072 3074 3076 3077 3079 3080 3081 3082 3084 3085 3086 3089
2970 2970 2971 2972 2973 2975 2976 2977 2978 2979 2980 2982 2983 2984 2986 2987 2987 2989 2991 2992 2994 2996 2997 2999 3001 3002 3004 3006 3007 3008 3009 3010 3010 3010 3010 3011 3011 3011 3011 3011 3012 3012 3013 3013 3015 3017 3019 3021 3024 3028 3030 3032 3034 3036 3037 3039 3040 3042 3043 3045 3047 3049 3051 3053 3055 3056 3058 3059 3060 3061 3062 3064 3065 3067 3069 3071 3073 3074 3076 3078 3078 3079 3081 3082 3083 3084 3086
2968 2969 2970 2971 2972 2974 2975 2976 2977 2978 2980 2981 2982 2984 2985 2986 2986 2988 2990 2991 2993 2995 2997 2999 3000 3002 3003 3005 3006 3008 3009 3010 3010 3010 3011 3011 3011 3012 3012 3012 3013 3014 3014 3015 3016 3019 3020 3021 3024 3027 3030 3032 3034 3036 3038 3039 3041 3042 3043 3045 3047 3049 3050 3052 3054 3056 3057 3058 3059 3061 3062 3063 3065 3066 3068 3070 3071 3073 3075 3076 3077 3078 3080 3080 3081 3083 3084
2967 2968 2969 2970 2972 2973 2974 2975 2976 2978 2979 2980 2982 2983 2985 2986 2986 2988 2990 2991 2993 2995 2997 2999 3000 3002 3003 3005 3006 3007 3009 3009 3010 3010 3011 3011 3012 3012 3013 3013 3014 3015 3016 3017 3018 3020 3021 3023 3025 3028 3030 3032 3034 3036 3038 3040 3041 3042 3044 3045 3047 3048 3050 3052 3054 3055 3056 3058 3059 3061 3062 3063 3064 3066 3068 3069 3070 3072 3073 3075 3076 3077 3078 3079 3080 3082 3083
2965 2966 2968 2969 2971 2972 2973 2974 2976 2977 2978 2980 2981 2982 2984 2986 2987 2988 2990 2991 2993 2995 2997 2999 3001 3002 3003 3004 3006 3007 3008 3009 3010 3011 3011 3012 3012 3013 3014 3014 3015 3017 3018 3019 3020 3021 3023 3024 3026 3028 3030 3032 3034 3036 3038 3040 3041 3043 3044 3045 3046 3048 3049 3051 3053 3055 3056 3058 3059 3060 3062 3063 3064 3065 3067 3068 3070 3072 3073 3074 3075 3076 3077 3078 3079 3081 3082
2964 2966 2967 2969 2970 2972 2973 2974 2975 2977 2978 2979 2980 2982 2984 2985 2986 2988 2990 2991 2993 2995 2997 2998 3000 3002 3003 3004 3006 3007 3008 3009 3010 3011 3012 3013 3013 3014 3015 3016 3017 3018 3019 3021 3022 3023 3024 3026 3027 3029 3031 3032 3034 3036 3038 3040 3041 3043 3044 3045 3046 3047 3049 3051 3053 3054 3056 3058 3059 3060 3061 3063 3064 3065 3066 3067 3070 3072 3073 3073 3074 3075 3076 3077 3079 3080 3081
2963 2965 2967 2968 2970 2971 2972 2974 2975 2976 2978 2979 2980 2982 2983 2985 2986 2987 2989 2991 2992 2994 2997 2999 3000 3002 3003 3004 3006 3007 3008 3010 3010 3011 3013 3014 3014 3015 3016 3017 3018 3019 3020 3022 3023 3024 3026 3027 3028 3030 3031 3033 3034 3036 3038 3039 3041 3042 3044 3045 3046 3047 3049 3051 3053 3054 3057 3058 3059 3060 3061 3063 3064 3066 3066 3067 3069 3070 3072 3072 3073 3074 3076 3077 3078 3078 3079
2963 2965 2966 2968 2969 2971 2972 2973 2975 2976 2977 2979 2980 2982 2983 2985 2986 2987 2988 2990 2992 2994 2997 2999 3000 3002 3004 3005 3006 3007 3009 3010 3011 3012 3013 3014 3015 3016 3017 3018 3019 3020 3021 3022 3023 3025 3026 3028 3029 3030 3032 3033 3035 3036 3038 3040 3041 3042 3044 3045 3046 3047 3048 3050 3052 3054 3057 3059 3060 3061 3062 3064 3065 3066 3067 3068 3068 3069 3071 3072 3073 3074 3075 3076 3077 3078 3079
2963 2965 2966 2968 2969 2970 2972 2973 2974 2976 2977 2978 2980 2982 2984 2985 2987 2987 2989 2991 2993 2995 2997 2999 3001 3002 3004 3005 3006 3008 3009 3011 3012 3012 3013 3015 3016 3017 3018 3019 3020 3021 3022 3023 3024 3026 3027 3028 3029 3031 3032 3034 3035 3037 3038 3040 3041 3043 3044 3045 3046 3047 3049 3050 3052 3054 3057 3059 3060 3062 3063 3064 3065 3066 3067 3067 3068 3069 3070 3071 3072 3073 3074 3075 3076 3078 3079
2963 2965 2966 2968 2969 2970 2972 2973 2974 2976 2977 2978 2980 2982 2984 2985 2987 2988 2989 2991 2993 2995 2997 2999 3001 3003 3004 3006 3007 3008 3010 3011 3012 3013 3014 3015 3016 3017 3019 3020 3020 3021 3023 3024 3025 3026 3027 3029 3030 3031 3033 3034 3035 3037 3038 3040 3041 3042 3044 3045 3046 3047 3048 3050 3052 3053 3056 3059 3061 3063 3064 3064 3064 3066 3066 3067 3068 3069 3070 3071 3072 3072 3073 3074 3075 3077 3078
2963 2965 2966 2968 2969 2970 2972 2973 2974 2976 2977 2978 2980 2982 2984 2985 2986 2988 2990 2992 2994 2996 2998 3000 3002 3003 3004 3006 3007 3009 3010 3011 3012 3014 3015 3016 3017 3018 3019 3020 3021 3022 3023 3024 3026 3027 3028 3029 3030 3032 3033 3034 3035 3037 3038 3039 3041 3042 3043 3044 3045 3047 3048 3049 3051 3053 3056 3058 3060 3061 3062 3063 3064 3065 3066 3066 3067 3069 3070 3070 3071 3072 3072 3073 3074 3076 3077
2963 2965 2966 2968 2969 2971 2972 2973 2975 2976 2977 2979 2980 2982 2983 2985 2987 2988 2990 2992 2993 2995 2997 3000 3002 3004 3005 3006 3008 3009 3010 3011 3012 3013 3015 3016 3017 3018 3019 3020 3021 3022 3024 3025 3026 3027 3028 3029 3030 3032 3033 3034 3035 3037 3038 3039 3040 3042 3043 3044 3045 3047 3048 3049 3051 3053 3055 3057 3059 3060 3062 3062 3062 3063 3064 3065 3066 3068 3069 3069 3070 3071 3071 3072 3073 3075 3076
2963 2965 2967 2968 2970 2971 2972 2974 2975 2977 2978 2979 2981 2982 2983 2985 2986 2988 2990 2992 2994 2995 2998 3000 3002 3004 3005 3007 3008 3009 3010 3011 3012 3013 3014 3015 3016 3017 3019 3020 3021 3022 3024 3025 3026 3027 3028 3029 3030 3032 3033 3034 3036 3037 3038 3039 3041 3042 3043 3044 3045 3046 3048 3049 3050 3052 3053 3055 3058 3061 3062 3061 3059 3061 3063 3064 3066 3067 3068 3069 3069 3070 3071 3072 3073 3075 3076
2963 2965 2967 2969 2970 2972 2973 2975 2976 2977 2978 2980 2981 2982 2983 2985 2987 2988 2990 2992 2994 2996 2999 3001 3003 3004 3006 3007 3009 3010 3010 3011 3013 3014 3015 3016 3017 3017 3018 3020 3021 3022 3023 3024 3025 3027 3028 3029 3030 3031 3033 3034 3035 3037 3038 3039 3040 3042 3043 3044 3045 3046 3047 3048 3049 3051 3052 3054 3056 3058 3059 3058 3058 3060 3062 3064 3065 3066 3067 3068 3068 3068 3070 3071 3073 3075 3076
2964 2966 2967 2969 2971 2972 2974 2975 2976 2978 2979 2980 2982 2983 2984 2985 2987 2989 2991 2993 2995 2997 3000 3002 3004 3005 3007 3008 3009 3010 3011 3012 3013 3014 3015 3016 3017 3018 3018 3020 3020 3021 3022 3023 3024 3026 3027 3028 3029 3031 3032 3033 3035 3036 3037 3039 3040 3041 3043 3044 3045 3046 3047 3048 3049 3050 3052 3053 3055 3056 3057 3057 3058 3060 3061 3063 3064 3065 3067 3068 3067 3068 3069 3071 3073 3074 3076
2964 2966 2968 2970 2971 2973 2974 2976 2977 2978 2980 2981 2983 2983 2985 2986 2988 2990 2992 2994 2995 2998 3000 3003 3004 3006 3007 3008 3010 3011 3011 3012 3013 3014 3015 3016 3017 3017 3018 3019 3020 3021 3022 3022 3023 3024 3026 3027 3029 3030 3031 3033 3034 3036 3037 3038 3039 3040 3042 3043 3044 3045 3047 3048 3049 3050 3051 3052 3054 3055 3056 3057 3058 3059 3060 3062 3064 3065 3066 3067 3067 3068 3069 3070 3072 3073 3074
2964 2967 2969 2970 2972 2973 2975 2976 2978 2979 2981 2982 2983 2984 2986 2988 2989 2991 2993 2995 2997 2999 3001 3003 3005 3006 3007 3009 3010 3011 3012 3012 3013 3014 3015 3015 3016 3017 3018 3019 3019 3020 3021 3021 3022 3023 3025 3026 3028 3029 3031 3032 3033 3035 3036 3037 3038 3040 3041 3042 3043 3045 3046 3047 3048 3050 3051 3052 3054 3055 3055 3056 3057 3059 3060 3062 3063 3064 3064 3066 3067 3068 3069 3070 3071 3072 3073
2965 2967 2969 2971 2973 2974 2976 2977 2979 2980 2982 2984 2984 2985 2986 2988 2990 2992 2994 2996 2998 3000 3002 3003 3005 3006 3007 3009 3010 3010 3011 3012 3013 3014 3014 3015 3016 3017 3018 3018 3019 3020 3021 3021 3022 3023 3024 3026 3027 3028 3030 3031 3033 3034 3035 3036 3038 3039 3040 3041 3042 3044 3045 3046 3047 3049 3050 3051 3053 3054 3054 3055 3057 3058 3059 3061 3062 3063 3064 3065 3067 3068 3069 3070 3070 3071 3072
2966 2968 2970 2972 2973 2975 2977 2978 2980 2981 2983 2984 2985 2986 2988 2990 2992 2994 2996 2997 2999 3000 3002 3004 3005 3006 3008 3009 3009 3010 3011 3012 3013 3014 3015 3015 3016 3017 3018 3019 3020 3020 3021 3022 3022 3023 3024 3025 3026 3028 3029 3030 3032 3033 3034 3035 3037 3038 3039 3040 3042 3043 3044 3045 3046 3047 3048 3049 3051 3052 3053 3054 3056 3057 3058 3060 3061 3062 3064 3065 3066 3067 3068 3069 3069 3070 3071
2966 2968 2970 2973 2974 2976 2978 2980 2981 2983 2984 2986 2986 2988 2990 2992 2994 2996 2998 2999 3001 3002 3003 3004 3006 3007 3008 3009 3010 3011 3011 3012 3013 3014 3015 3016 3017 3018 3019 3019 3020 3021 3021 3022 3022 3023 3024 3025 3026 3027 3028 3029 3031 3032 3033 3035 3036 3037 3038 3039 3040 3041 3043 3044 3045 3046 3047 3048 3049 3051 3052 3054 3055 3056 3058 3060 3061 3062 3063 3065 3066 3066 3067 3068 3069 3070 3071
2967 2969 2971 2973 2975 2977 2979 2981 2982 2984 2986 2987 2988 2990 2992 2994 2996 2998 2999 3000 3002 3002 3003 3004 3006 3007 3008 3009 3010 3011 3012 3013 3014 3015 3016 3017 3017 3018 3019 3019 3020 3020 3020 3021 3021 3022 3023 3024 3025 3026 3027 3029 3030 3031 3033 3034 3035 3036 3037 3038 3039 3040 3042 3043 3044 3045 3047 3048 3049 3051 3052 3053 3054 3056 3057 3059 3061 3062 3063 3064 3065 3066 3067 3067 3068 3070 3071
2968 2970 2972 2974 2977 2979 2981 2982 2984 2985 2987 2989 2990 2992 2994 2996 2998 2999 3001 3002 3002 3003 3004 3005 3006 3008 3009 3010 3011 3012 3013 3013 3014 3015 3016 3017 3017 3018 3018 3019 3019 3019 3019 3019 3020 3021 3022 3023 3024 3025 3027 3028 3029 3030 3031 3033 3034 3035 3036 3037 3038 3039 3041 3042 3043 3044 3046 3047 3048 3050 3051 3053 3054 3056 3057 3059 3060 3062 3063 3064 3064 3065 3066 3068 3069 3070 3071
2969 2971 2973 2976 2978 2980 2982 2984 2985 2987 2989 2990 2992 2994 2996 2998 2999 3000 3002 3002 3003 3004 3004 3006 3007 3009 3010 3011 3012 3013 3013 3014 3015 3016 3016 3017 3017 3018 3018 3018 3018 3017 3018 3018 3019 3020 3021 3022 3023 3025 3026 3027 3028 3029 3030 3032 3033 3034 3035 3036 3037 3038 3040 3041 3042 3043 3045 3046 3048 3049 3051 3052 3054 3056 3057 3059 3060 3061 3062 3063 3064 3065 3066 3067 3068 3070 3071
2970 2973 2975 2977 2979 2981 2983 2985 2987 2989 2990 2991 2994 2996 2998 2999 3001 3002 3003 3003 3004 3005 3006 3007 3008 3010 3011 3013 3013 3014 3014 3015 3015 3016 3017 3017 3017 3017 3017 3017 3016 3016 3016 3017 3018 3019 3021 3022 3023 3024 3025 3027 3028 3029 3030 3031 3032 3033 3034 3035 3036 3037 3039 3040 3041 3042 3044 3045 3047 3049 3050 3052 3054 3056 3057 3059 3060 3061 3062 3063 3064 3065 3067 3067 3068 3069 3071
2972 2974 2976 2978 2980 2983 2985 2986 2988 2990 2991 2993 2995 2998 2999 3001 3002 3003 3004 3005 3006 3007 3008 3008 3009 3011 3012 3013 3014 3015 3015 3016 3016 3017 3017 3017 3017 3017 3017 3016 3016 3016 3016 3016 3017 3019 3020 3022 3023 3024 3025 3026 3027 3029 3030 3031 3032 3033 3033 3034 3036 3037 3038 3039 3040 3041 3042 3044 3046 3048 3050 3051 3053 3056 3057 3059 3060 3061 3062 3063 3065 3066 3067 3069 3069 3070 3071
2973 2975 2977 2979 2982 2984 2986 2988 2990 2991 2993 2995 2997 2999 3001 3002 3003 3004 3005 3006 3007 3008 3009 3009 3010 3012 3013 3014 3015 3016 3016 3017 3018 3018 3018 3018 3017 3017 3017 3017 3017 3016 3016 3017 3018 3019 3020 3022 3023 3024 3025 3026 3027 3029 3030 3031 3031 3032 3033 3034 3035 3036 3037 3038 3039 3041 3042 3044 3046 3048 3050 3051 3053 3056 3057 3059 3060 3062 3063 3064 3066 3067 3068 3069 3071 3071 3072
2975 2977 2979 2981 2983 2985 2987 2989 2991 2993 2995 2997 2998 3000 3002 3003 3004 3005 3006 3007 3008 3009 3010 3011 3012 3013 3014 3015 3016 3017 3018 3018 3019 3019 3018 3018 3018 3018 3018 3017 3017 3017 3018 3018 3019 3020 3021 3022 3023 3024 3025 3026 3028 3029 3030 3031 3032 3033 3034 3035 3036 3037 3037 3039 3040 3042 3044 3045 3047 3049 3051 3052 3054 3056 3058 3059 3061 3063 3064 3065 3067 3068 3069 3070 3071 3072 3073
2977 2978 2980 2982 2984 2987 2989 2991 2992 2994 2996 2998 3000 3002 3003 3004 3006 3007 3008 3009 3010 3011 3012 3012 3013 3014 3015 3016 3017 3018 3019 3020 3020 3020 3020 3019 3019 3019 3019 3019 3018 3018 3019 3019 3020 3021 3021 3023 3024 3025 3026 3027 3028 3029 3030 3031 3032 3033 3034 3035 3036 3037 3038 3039 3041 3043 3044 3045 3047 3050 3052 3053 3055 3056 3058 3060 3062 3063 3064 3066 3067 3068 3069 3070 3071 3072 3073
2978 2980 2982 2984 2986 2988 2990 2992 2994 2996 2998 3000 3001 3003 3004 3005 3007 3008 3009 3010 3011 3012 3013 3014 3014 3015 3016 3017 3018 3019 3020 3021 3021 3021 3021 3021 3021 3020 3020 3020 3020 3020 3020 3021 3021 3022 3023 3024 3025 3026 3027 3028 3029 3030 3031 3032 3033 3034 3035 3036 3036 3037 3038 3039 3041 3043 3045 3046 3048 3050 3053 3055 3056 3057 3059 3061 3062 3064 3065 3066 3067 3069 3070 3071 3072 3072 3073
2979 2981 2983 2985 2987 2989 2991 2993 2995 2997 2999 3001 3002 3004 3005 3006 3008 3009 3010 3011 3012 3013 3014 3015 3015 3016 3017 3018 3019 3020 3021 3022 3023 3022 3022 3022 3022 3022 3022 3022 3021 3021 3022 3022 3023 3024 3024 3026 3027 3027 3028 3029 3030 3031 3032 3033 3034 3035 3036 3037 3037 3038 3040 3041 3043 3045 3047 3049 3050 3052 3053 3055 3057 3059 3060 3061 3063 3065 3067 3067 3068 3069 3071 3072 3072 3073 3074
2981 2982 2984 2986 2988 2990 2992 2994 2996 2998 3000 3001 3003 3004 3006 3007 3008 3010 3011 3012 3013 3014 3015 3016 3016 3017 3018 3019 3021 3022 3022 3023 3024 3024 3024 3024 3024 3024 3024 3024 3024 3024 3024 3024 3025 3025 3025 3026 3028 3028 3029 3030 3032 3032 3033 3034 3035 3036 3037 3038 3039 3040 3042 3044 3045 3047 3049 3051 3053 3054 3055 3056 3058 3060 3061 3062 3064 3066 3068 3069 3070 3071 3072 3073 3074 3075 3075
2982 2984 2985 2987 2989 2991 2993 2995 2997 2999 3001 3002 3004 3005 3006 3008 3009 3011 3012 3013 3014 3015 3016 3017 3017 3018 3019 3020 3021 3023 3023 3024 3025 3025 3025 3025 3025 3026 3026 3025 3025 3025 3025 3026 3026 3027 3027 3028 3029 3029 3030 3031 3032 3033 3034 3035 3036 3037 3038 3039 3041 3042 3044 3045 3047 3049 3050 3052 3054 3056 3057 3058 3059 3061 3062 3064 3066 3068 3069 3071 3072 3073 3073 3074 3075 3076 3076
2983 2985 2987 2989 2990 2992 2994 2996 2998 3000 3002 3003 3004 3006 3007 3009 3010 3011 3013 3014 3015 3016 3017 3018 3019 3019 3020 3021 3022 3023 3024 3025 3026 3026 3026 3026 3027 3027 3027 3027 3027 3027 3027 3027 3028 3029 3029 3029 3030 3030 3031 3032 3032 3033 3034 3035 3037 3038 3039 3041 3042 3044 3045 3046 3048 3050 3052 3054 3056 3058 3059 3060 3061 3063 3064 3066 3068 3069 3071 3071 3072 3073 3074 3075 3076 3077 3077
2984 2986 2988 2989 2991 2993 2995 2997 2999 3001 3002 3004 3005 3007 3008 3010 3011 3012 3014 3015 3016 3017 3018 3019 3020 3021 3021 3022 3023 3024 3025 3026 3026 3027 3027 3028 3028 3028 3028 3029 3028 3028 3029 3029 3030 3030 3030 3031 3031 3031 3032 3032 3033 3035 3036 3036 3038 3039 3041 3043 3044 3046 3048 3049 3050 3051 3053 3056 3058 3060 3061 3062 3064 3065 3066 3068 3069 3071 3072 3073 3073 3075 3076 3076 3077 3078 3078
2985 2986 2988 2990 2992 2993 2995 2997 2999 3001 3003 3004 3006 3008 3009 3010 3012 3013 3014 3015 3016 3017 3019 3020 3021 3022 3023 3024 3024 3025 3025 3027 3027 3028 3028 3029 3029 3030 3030 3030 3030 3030 3030 3031 3031 3032 3032 3032 3032 3032 3033 3034 3035 3037 3038 3039 3040 3041 3043 3044 3046 3048 3050 3052 3053 3053 3054 3056 3059 3061 3062 3064 3066 3067 3068 3070 3071 3072 3073 3074 3075 3076 3077 3078 3079 3080 3080
2985 2987 2989 2991 2992 2994 2996 2998 3000 3002 3004 3005 3007 3008 3010 3011 3012 3014 3015 3016 3017 3018 3019 3021 3022 3023 3024 3025 3025 3026 3027 3028 3028 3029 3030 3030 3031 3031 3032 3032 3032 3032 3032 3033 3033 3034 3034 3034 3034 3034 3035 3036 3038 3039 3040 3041 3042 3044 3046 3047 3048 3050 3052 3054 3055 3055 3056 3058 3060 3062 3064 3065 3067 3068 3070 3071 3072 3073 3075 3076 3077 3078 3079 3080 3081 3081 3082
2985 2987 2989 2991 2993 2995 2997 2999 3001 3003 3005 3006 3008 3009 3010 3012 3013 3014 3015 3016 3018 3019 3020 3021 3022 3024 3025 3026 3026 3027 3028 3029 3030 3031 3031 3031 3032 3033 3033 3033 3034 3034 3034 3035 3036 3036 3036 3036 3037 3037 3037 3038 3040 3041 3041 3043 3044 3046 3048 3050 3051 3053 3055 3056 3058 3059 3061 3062 3063 3065 3066 3068 3069 3070 3071 3073 3074 3075 3076 3077 3078 3079 3080 3081 3082 3083 3083
2986 2988 2990 2992 2994 2996 2998 3000 3002 3004 3005 3007 3008 3010 3011 3012 3013 3014 3015 3017 3018 3019 3020 3021 3023 3024 3025 3027 3028 3029 3029 3030 3031 3032 3033 3033 3033 3034 3034 3035 3035 3035 3036 3036 3037 3038 3038 3038 3039 3039 3040 3040 3041 3042 3043 3045 3046 3048 3050 3051 3053 3055 3057 3058 3060 3062 3064 3065 3066 3067 3069 3070 3072 3073 3074 3075 3076 3077 3078 3079 3080 3080 3081 3082 3083 3084 3085
2986 2988 2991 2993 2995 2997 2998 3000 3002 3004 3006 3007 3009 3010 3012 3013 3013 3014 3015 3017 3018 3019 3020 3021 3023 3024 3026 3028 3029 3030 3031 3031 3032 3033 3034 3034 3034 3035 3036 3036 3036 3037 3037 3038 3038 3039 3040 3040 3041 3042 3042 3042 3043 3044 3045 3046 3048 3049 3051 3053 3054 3056 3058 3059 3061 3062 3064 3066 3067 3068 3070 3071 3073 3074 3076 3077 3078 3079 3080 3080 3081 3082 3083 3084 3085 3086 3086
2987 2989 2991 2994 2996 2997 2999 3001 3003 3005 3006 3008 3009 3010 3012 3013 3014 3014 3016 3017 3018 3019 3020 3022 3024 3025 3027 3028 3030 3031 3032 3032 3033 3034 3034 3035 3036 3036 3037 3037 3038 3038 3038 3039 3039 3040 3041 3041 3042 3043 3043 3043 3044 3045 3046 3048 3049 3051 3052 3054 3056 3057 3059 3060 3062 3063 3066 3067 3068 3069 3071 3072 3074 3076 3077 3078 3079 3080 3081 3081 3082 3083 3084 3085 3086 3087 3087
2988 2990 2992 2994 2996 2998 3000 3001 3003 3005 3006 3007 3009 3010 3011 3012 3013 3014 3016 3016 3017 3019 3021 3022 3024 3025 3027 3029 3030 3031 3032 3033 3034 3034 3035 3036 3037 3037 3038 3038 3038 3039 3039 3040 3040 3041 3042 3042 3043 3044 3044 3044 3045 3046 3048 3049 3051 3052 3054 3055 3057 3059 3061 3062 3064 3065 3067 3068 3070 3071 3072 3074 3075 3076 3078 3079 3080 3081 3082 3082 3083 3084 3085 3086 3087 3087 3088
2988 2990 2993 2995 2996 2998 3000 3002 3003 3004 3005 3006 3007 3009 3010 3011 3013 3014 3015 3017 3018 3019 3021 3023 3024 3026 3027 3029 3030 3032 3033 3034 3034 3035 3036 3036 3037 3038 3038 3039 3039 3039 3040 3040 3041 3041 3042 3042 3043 3044 3045 3045 3045 3047 3049 3050 3052 3053 3055 3056 3058 3060 3061 3063 3065 3066 3068 3069 3071 3072 3073 3075 3076 3077 3078 3079 3080 3081 3082 3083 3084 3085 3086 3086 3087 3088 3089
2989 2991 2993 2995 2996 2998 3000 3001 3002 3003 3004 3005 3007 3008 3009 3011 3013 3014 3016 3017 3019 3021 3022 3024 3025 3027 3028 3030 3031 3032 3033 3034 3035 3036 3036 3037 3038 3038 3039 3039 3040 3040 3040 3041 3041 3041 3041 3042 3042 3043 3044 3045 3046 3047 3049 3051 3053 3054 3056 3057 3058 3060 3062 3063 3065 3067 3068 3069 3071 3072 3074 3075 3076 3077 3078 3079 3080 3081 3082 3084 3085 3085 3086 3087 3088 3088 3089
2989 2991 2993 2995 2996 2997 2999 2999 3000 3002 3003 3005 3006 3008 3010 3012 3014 3015 3017 3018 3020 3022 3023 3025 3026 3028 3029 3030 3031 3032 3033 3034 3035 3036 3037 3037 3038 3038 3039 3039 3040 3040 3040 3040 3040 3041 3041 3042 3042 3043 3044 3045 3046 3047 3049 3051 3053 3055 3056 3057 3058 3060 3062 3064 3065 3067 3068 3070 3071 3072 3074 3075 3076 3077 3078 3079 3080 3081 3083 3084 3085 3086 3087 3087 3088 3089 3089
2989 2991 2993 2994 2995 2996 2997 2999 3000 3002 3003 3005 3006 3009 3011 3013 3014 3016 3017 3019 3021 3023 3024 3025 3027 3028 3029 3030 3031 3032 3033 3034 3035 3036 3037 3037 3038 3038 3039 3039 3039 3039 3039 3040 3040 3041 3041 3042 3042 3043 3044 3045 3046 3047 3049 3050 3053 3055 3057 3058 3059 3060 3062 3064 3066 3067 3069 3070 3071 3072 3074 3075 3076 3077 3078 3079 3080 3081 3083 3084 3085 3086 3087 3087 3088 3089 3089
2989 2990 2992 2994 2995 2996 2997 2999 3000 3001 3003 3005 3006 3008 3010 3012 3014 3016 3018 3019 3021 3023 3024 3026 3027 3028 3029 3030 3032 3033 3033 3034 3035 3036 3036 3037 3038 3038 3038 3039 3038 3038 3039 3039 3040 3041 3041 3042 3042 3043 3044 3045 3046 3047 3048 3050 3052 3054 3056 3058 3060 3061 3062 3063 3065 3067 3069 3070 3071 3073 3074 3075 3076 3077 3078 3079 3080 3081 3083 3084 3084 3085 3086 3087 3088 3088 3089
2988 2990 2992 2993 2994 2996 2997 2999 3000 3001 3003 3004 3006 3008 3010 3012 3014 3016 3018 3019 3021 3023 3024 3026 3027 3028 3029 3030 3032 3032 3033 3034 3035 3035 3036 3036 3037 3037 3037 3037 3037 3037 3038 3039 3040 3041 3041 3042 3042 3043 3044 3045 3046 3047 3048 3050 3052 3054 3056 3058 3060 3061 3062 3064 3065 3067 3069 3070 3071 3073 3074 3075 3076 3077 3078 3079 3080 3081 3082 3083 3084 3085 3086 3086 3087 3088 3089
2988 2989 2991 2992 2994 2995 2997 2998 2999 3001 3002 3003 3005 3007 3009 3012 3013 3015 3018 3019 3021 3023 3024 3026 3027 3028 3029 3030 3031 3032 3033 3033 3034 3034 3035 3035 3036 3036 3036 3036 3036 3037 3038 3039 3040 3040 3041 3041 3042 3043 3044 3045 3045 3046 3048 3050 3051 3053 3055 3057 3059 3061 3063 3064 3065 3067 3068 3070 3071 3072 3074 3075 3076 3077 3078 3079 3080 3080 3081 3082 3083 3084 3085 3086 3087 3087 3088
2987 2989 2990 2992 2993 2995 2996 2998 2999 3000 3002 3003 3005 3007 3009 3011 3013 3015 3017 3019 3021 3022 3023 3025 3026 3027 3028 3029 3030 3031 3031 3032 3033 3033 3033 3034 3034 3034 3034 3035 3036 3037 3038 3038 3039 3039 3040 3041 3042 3043 3044 3044 3045 3046 3047 3049 3051 3053 3055 3057 3059 3060 3062 3064 3065 3066 3068 3070 3071 3072 3073 3074 3076 3077 3078 3078 3079 3080 3081 3082 3083 3083 3084 3085 3086 3087 3087
2986 2987 2989 2991 2993 2994 2996 2997 2998 2999 3001 3002 3004 3006 3008 3011 3013 3015 3017 3019 3020 3022 3023 3024 3025 3027 3028 3028 3029 3030 3030 3031 3031 3031 3032 3032 3032 3032 3033 3034 3035 3036 3036 3037 3038 3038 3039 3040 3042 3043 3044 3044 3045 3046 3047 3048 3050 3052 3054 3056 3058 3060 3061 3063 3064 3066 3068 3069 3070 3072 3073 3074 3075 3076 3077 3078 3079 3080 3080 3081 3082 3083 3084 3084 3085 3086 3087